Home   Weather   Kaliningrad   Past weeks

Flag for Russia Past Weather in Kaliningrad, Russia — Yesterday and Last 2 Weeks

Now
28 °F

Light freezing rain. Ice fog.


Feels Like: 16 °F
Forecast: 37 / 38 °F
Wind: 17 mph from Southwest

Location: Kaliningrad/Khrabrovo Airport

Current Time: Jan 19, 2017 at 10:53:53 am

Latest Report: Jan 19, 2017 at 10:00 am


Visibility: 1 mi

Pressure: 30.48 "Hg

Humidity: 100%

Dew Point: 28 °F

Location of KaliningradLocation

Past Weather in Kaliningrad — Graph

°F

Kaliningrad Temperature Yesterday

Maximum temperature yesterday: 30 °F (at 11:30 am)
Minimum temperature yesterday: 27 °F (at 12:00 am)
Average temperature yesterday: 29 °F

High & Low Weather Summary for the Past Weeks

 TemperatureHumidityPressure
High37 °F (Jan 12, 12:30 pm)100% (Jan 4, 10:00 am)30.69 "Hg (Jan 4, 10:00 am)
Low7 °F (Jan 6, 6:00 pm)49% (Jan 5, 9:30 pm)28.94 "Hg (Jan 4, 12:00 pm)
Average25 °F89%30.04 "Hg
* Reported Jan 4 9:00 am — Jan 19 9:30 am, Kaliningrad, Weather by CustomWeather, © 2017

Note: Actual official high and low records may vary slightly from our data, if they occured in-between our weather recording intervals... More about our weather records

Advertising

Kaliningrad Weather History for the Previous 24 Hours

Scroll right to see more
 ConditionsComfort  
Time TempWeatherWind HumidityBarometerVisibility
9:30 am
Thu, Jan 19
28 °FLight freezing rain. Ice fog.17 mph100%30.48 "Hg1 mi
9:00 am28 °FLight freezing rain. Ice fog.15 mph100%30.48 "Hg1 mi
8:30 am28 °FLight freezing rain. Ice fog.15 mph100%30.48 "Hg2 mi
8:00 am28 °FIce fog.17 mph100%30.48 "Hg1 mi
7:30 am28 °FIce fog.15 mph100%30.48 "Hg2 mi
7:00 am28 °FIce fog.17 mph100%30.48 "Hg2 mi
6:30 am28 °FIce fog.17 mph100%30.48 "Hg3 mi
6:00 am28 °FIce fog.17 mph100%30.48 "Hg3 mi
5:30 am28 °FIce fog.20 mph100%30.51 "Hg2 mi
5:00 am28 °FIce fog.17 mph100%30.51 "Hg2 mi
4:30 am28 °FIce fog.20 mph100%30.51 "Hg2 mi
3:00 am28 °FSnow flurries. Ice fog.15 mph100%30.54 "Hg2 mi
2:00 am28 °FIce fog.15 mph100%30.54 "Hg2 mi
1:00 am28 °FIce fog.15 mph100%30.57 "Hg2 mi
12:00 am28 °FIce fog.15 mph100%30.57 "Hg3 mi
11:00 pm
Wed, Jan 18
28 °FPartly cloudy.13 mph100%30.57 "Hg4 mi
10:30 pm28 °FSnow flurries. Ice fog.13 mph100%30.57 "Hg3 mi
10:00 pm28 °FSnow flurries. Ice fog.13 mph100%30.60 "Hg3 mi
9:30 pm28 °FOvercast.13 mph100%30.57 "Hg5 mi
9:00 pm28 °FOvercast.13 mph100%30.60 "Hg5 mi
8:30 pm28 °FOvercast.13 mph100%30.60 "Hg5 mi
8:00 pm30 °FOvercast.15 mph93%30.60 "HgN/A
7:30 pm30 °FOvercast.15 mph93%30.60 "HgN/A
7:00 pm30 °FOvercast.15 mph86%30.60 "HgN/A
6:30 pm30 °FPassing clouds.15 mph86%30.60 "HgN/A
6:00 pm30 °FPassing clouds.15 mph93%30.63 "HgN/A
5:30 pm30 °FPartly sunny.13 mph93%30.63 "HgN/A
5:00 pm30 °FPartly sunny.13 mph93%30.63 "HgN/A
4:30 pm30 °FPartly sunny.10 mph93%30.60 "HgN/A
4:00 pm30 °FPassing clouds.10 mph93%30.60 "HgN/A
3:30 pm30 °FScattered clouds.13 mph93%30.63 "HgN/A
3:00 pm30 °FPartly sunny.13 mph93%30.60 "HgN/A
2:30 pm30 °FPartly sunny.13 mph93%30.63 "HgN/A
2:00 pm30 °FOvercast.15 mph93%30.63 "HgN/A
1:30 pm30 °FOvercast.10 mph86%30.63 "HgN/A
1:00 pm30 °FOvercast.13 mph86%30.63 "HgN/A
12:30 pm30 °FOvercast.10 mph86%30.63 "HgN/A
12:00 pm30 °FPartly sunny.13 mph93%30.63 "HgN/A
11:30 am30 °FLight snow. Partly sunny.13 mph93%30.63 "HgN/A
10:30 am28 °FPartly sunny.10 mph100%30.63 "HgN/A
10:00 am28 °FPartly sunny.10 mph93%30.63 "HgN/A
Weather by CustomWeather, © 2017

See weather overviewHow to use our weather pages